Location: Colonia Mina de C?rbuni
(46.1667°N, 22.7167°E)
Time: 21:00:19
(UTC+00:00)

Tiros 1 - Pass Details

Date: 25 April 2024
Orbit: 624 x 657 km, 48.4° (Epoch: 20 May)

Event Time Altitude Azimuth Distance (km) Brightness Sun altitude
Rises 21:26:42 0° 247° (WSW) 2,941 - -28.7°
Reaches altitude 10° 21:29:02 10° 247° (WSW) 2,028 - -28.8°
Maximum altitude 21:33:43 83° 160° (SSE) 644 - -29.1°
Drops below altitude 10° 21:38:21 10° 73° (ENE) 2,012 - -29.3°
Sets 21:40:40 0° 73° (ENE) 2,917 - -29.4°
